Dallas/Ft Worth, TX

6:59 AM CDT on July 29, 2017 (GMT -0500)
Dallas-Fort Worth International

Weather History for KDFW - February, 2013

Change the Weather History Date:

Tuesday, February 19, 2013

  Actual Average Record
Temperature  
Mean Temperature 49 °F 51 °F  
Max Temperature 61 °F 61 °F 87 °F (1986)
Min Temperature 37 °F 40 °F 9 °F (1978)
Degree Days  
Heating Degree Days 16 14  
Month to date heating degree days 208 309  
Since 1 July heating degree days 1441 1814  
Cooling Degree Days 0 0  
Month to date cooling degree days 2 0  
Year to date cooling degree days 12 2  
Moisture  
Dew Point 24 °F    
Average Humidity 40    
Maximum Humidity 59    
Minimum Humidity 20    
Precipitation  
Precipitation T in 0.10 in 1.77 in (1997)
Month to date precipitation 1.39 1.75  
Year to date precipitation 5.45 3.88  
Snow  
Snow 0.00 in 0.00 in 2.00 in (1959)
Month to date snowfall 0.0 0.7  
Since 1 July snowfall 0.8 1.2  
Snow Depth 0.00 in    
Sea Level Pressure  
Sea Level Pressure 30.20 in    
Wind  
Wind Speed 8 mph (ENE)    
Max Wind Speed 16 mph    
Max Gust Speed 21 mph    
Visibility 10 miles    
Events Rain    
T = Trace of Precipitation, MM = Missing Value Source: NWS Daily Summary

Daily Weather History Graph

Daily Weather History Graph

Search for Another Location

Airport or City:

Trip Planner

Search our weather history database for the weather conditions in past years. The results will help you decide how hot, cold, wet, or windy it might be!

Date:

Astronomy

Feb. 19, 2013 Rise Set
Actual Time 7:07 AM CST 6:17 PM CST
Civil Twilight 6:42 AM CST 6:42 PM CST
Nautical Twilight 6:13 AM CST 7:11 PM CST
Astronomical Twilight 5:44 AM CST 7:39 PM CST
Moon 12:59 PM CST (2/19) 2:30 AM CST (2/19)
Length of Visible Light 12h 00m
Length of Day
11h 10m
Waxing Gibbous, 67% of the Moon is Illuminated
Feb 19
Waxing Gibbous
Feb 25
Full
Mar 4
Last Quarter
Mar 11
New
Mar 19
First Quarter

Hourly Weather History & Observations

Time (CST) Temp. Windchill Dew Point Humidity Pressure Visibility Wind Dir Wind Speed Gust Speed Precip Events Conditions
12:53 AM 48.0 °F - 28.9 °F 48% 30.13 in 10.0 mi North 10.4 mph - N/A   Clear
1:53 AM 46.9 °F - 28.0 °F 48% 30.13 in 10.0 mi NNE 9.2 mph - N/A   Clear
2:53 AM 46.0 °F 39.9 °F 28.0 °F 50% 30.10 in 10.0 mi NE 13.8 mph - N/A   Clear
3:53 AM 44.1 °F 41.5 °F 27.0 °F 51% 30.14 in 10.0 mi North 4.6 mph - N/A   Mostly Cloudy
4:53 AM 42.1 °F 39.2 °F 27.0 °F 55% 30.17 in 10.0 mi NE 4.6 mph - N/A   Mostly Cloudy
5:53 AM 41.0 °F 37.1 °F 26.1 °F 55% 30.20 in 10.0 mi NNE 5.8 mph - N/A   Mostly Cloudy
6:53 AM 39.9 °F 36.7 °F 26.1 °F 58% 30.23 in 10.0 mi NNE 4.6 mph - N/A   Mostly Cloudy
7:53 AM 44.1 °F - 27.0 °F 51% 30.29 in 10.0 mi Calm Calm - N/A   Mostly Cloudy
8:53 AM 46.9 °F - 25.0 °F 42% 30.31 in 10.0 mi East 6.9 mph - N/A   Scattered Clouds
9:53 AM 50.0 °F - 23.0 °F 35% 30.32 in 10.0 mi East 10.4 mph - N/A   Partly Cloudy
10:53 AM 52.0 °F - 19.9 °F 28% 30.32 in 10.0 mi East 9.2 mph - N/A   Partly Cloudy
12:53 PM 57.0 °F - 19.9 °F 24% 30.28 in 10.0 mi East 8.1 mph - N/A   Scattered Clouds
1:53 PM 60.1 °F - 19.0 °F 20% 30.24 in 10.0 mi ENE 10.4 mph - N/A   Partly Cloudy
2:53 PM 60.1 °F - 19.9 °F 21% 30.20 in 10.0 mi East 6.9 mph 19.6 mph N/A   Mostly Cloudy
3:53 PM 61.0 °F - 19.0 °F 20% 30.17 in 10.0 mi East 9.2 mph 18.4 mph N/A   Mostly Cloudy
4:53 PM 60.1 °F - 19.9 °F 21% 30.17 in 10.0 mi East 11.5 mph - N/A   Mostly Cloudy
6:53 PM 55.9 °F - 21.0 °F 26% 30.17 in 10.0 mi East 8.1 mph - N/A   Overcast
7:53 PM 55.9 °F - 21.9 °F 27% 30.16 in 10.0 mi East 9.2 mph - N/A   Overcast
8:53 PM 55.9 °F - 21.9 °F 27% 30.17 in 10.0 mi ESE 6.9 mph - N/A   Overcast
9:53 PM 55.0 °F - 24.1 °F 30% 30.17 in 10.0 mi ESE 10.4 mph - 0.00 in Rain Light Rain
10:53 PM 53.1 °F - 28.9 °F 40% 30.16 in 10.0 mi ESE 12.7 mph - 0.00 in Rain Light Rain
11:53 PM 53.1 °F - 28.0 °F 38% 30.15 in 10.0 mi East 9.2 mph - 0.00 in Rain Light Rain